Tracking 29089 objects as of 12-Jul-2024
HD Live streaming from Space Station
objects crossing your sky now

METEOR 1-13

Track METEOR 1-13 now!
10-day predictions
METEOR 1-13 is classified as:


NORAD ID: 6256
Int'l Code: 1972-085A
Perigee: 849.6 km
Apogee: 888.7 km
Inclination: 81.3 °
Period: 102.2 minutes
Semi major axis: 7240 km
RCS: 4.603 m2 (large)
Launch date: October 26, 1972
Source: Commonwealth of Independent States (former USSR) (CIS)
Launch site: PLESETSK MISSILE AND SPACE COMPLEX (PKMTR)
Your satellite tracking list
Your tracking list is empty




NASA's NSSDC Master Catalog

Two Line Element Set (TLE):
1 06256U 72085A   24194.51332509  .00000185  00000-0  99176-4 0  9999
2 06256  81.2733 115.8529 0026998 345.0381  14.9988 14.09215703655618
Source of the keplerian elements: AFSPC